CUBESAT XI-V

Last updated on Wed Aug 19 2026 00:03:14 GMT+0000 (Coordinated Universal Time)

1 28895U 05043F 26230.23056010 .00000959 00000+0 15819-3 0 9993 2 28895 98.3063 27.1879 0014184 14.2776 345.8829 14.72771766110887
UTC large
Height (km)
Speed (km/s)
/
Latitude / Longitude
Inclination (degrees)
Orbital Period (minutes)
Azimuth
Elevation
Range (km)
Doppler Factor

Next 0 passes for location: London (51.5072 / 0.1276)

No passes found over London.
CUBESAT XI-V